Location: Dehesa de la Cepeda
(40.6574°N, 4.3013°W)
Time: 19:31:31
(UTC+00:00)

Explorer 7 - Pass Details

Date: 15 August 2021
Orbit: 484 x 676 km, 50.3° (Epoch: 17 September)

Event Time Altitude Azimuth Distance (km) Brightness Sun altitude
Rises 04:33:53 0° 306° (NW) 2,551 10.0 -10.2°
Reaches altitude 10° 04:36:12 10° 317° (NW) 1,678 9.1 -9.8°
Maximum altitude 04:39:37 31° 22° (NNE) 884 8.4 -9.2°
Drops below altitude 10° 04:43:09 10° 86° (E) 1,729 10.6 -8.6°
Sets 04:45:34 0° 97° (E) 2,643 11.4 -8.2°
